Regional Weather Roundup
Issued by NWS

Home | Current Version | Previous Version | Text Only | Print | Product List | Glossary On
Versions: 1 2 3 4 5 6 7 8 9 10 11 12 13 14 15 16 17 18 19 20 21 22 23 24 25 26 27 28 29 30 31 32 33 34 35 36 37 38 39 40 41 42 43 44 45 46 47 48 49 50
526
ASUS44 KJAN 262003
RWRMS

MISSISSIPPI HOURLY WEATHER ROUNDUP
NATIONAL WEATHER SERVICE JACKSON MS
200 PM CST WED NOV 26 2014

NOTE: "FAIR: INDICATES FEW OR NO CLOUDS BELOW 12,000 FEET WITH NO
SIGNIFICANT WEATHER AND/OR OBSTRUCTIONS TO VISIBILITY.

MSZ001>002-007>008-010>013-018>021-025>028-034>036-262100-
NORTHWEST MISSISSIPPI

CITY           SKY/WX    TMP DP  RH WIND       PRES   REMARKS
CLARKSDALE     FAIR      55  43  62 SW12      30.01R
CLEVELAND      FAIR      60  45  58 SW15G22   29.99S
GREENWOOD      CLOUDY    59  36  42 SW13      30.00F
GREENVILLE     PTSUNNY   64  34  32 W22G29    29.99S
GRENADA        CLOUDY    57  32  38 SW5       29.99S
OLIVE BRANCH   CLOUDY    48  32  53 SW10      30.00R
OXFORD         FAIR      52  30  43 S7        29.99R
TUNICA         CLOUDY    52  41  66 SW10      30.02R
$$

MSZ003>006-009-014>017-022>024-029>033-037>039-262100-
NORTHEAST MISSISSIPPI

CITY           SKY/WX    TMP DP  RH WIND       PRES   REMARKS
COLUMBUS AFB   PTSUNNY   56  29  36 S12       30.03F
CORINTH        FAIR      50  28  43 S10       30.00F
GOLDN TRIANGLE MOSUNNY   59  30  33 S14       30.03F
STARKVILLE     FAIR      59  30  33 S9G18     30.02F
TUPELO         CLOUDY    52  31  44 MISG      30.00F
$$

MSZ040-058-262100-
CENTRAL MISSISSIPPI

CITY           SKY/WX    TMP DP  RH WIND       PRES   REMARKS
JACKSON INTL   MOSUNNY   65  31  28 S20G29    30.06F
JACKSON HAWKNS SUNNY     66  33  29 SW13G23   30.06F
MERIDIAN KEY   SUNNY     62  28  27 SW20G25   30.07F
MERIDIAN NAS   SUNNY     62  26  25 VRB6G16   30.08F
RAYMOND        FAIR      68  63  83 SW16G29   30.06S
VICKSBURG      MOSUNNY   67  37  33 SW13G24   30.07S
$$

MSZ059>079-262100-
SOUTH MISSISSIPPI

CITY           SKY/WX    TMP DP  RH WIND       PRES   REMARKS
BROOKHAVEN     FAIR      64  36  34 SW20G25   30.11F
HATTIESBURG    SUNNY     65  31  28 SW13      30.14F
MCCOMB         SUNNY     66  37  34 SW16G24   30.12F
NATCHEZ        SUNNY     68  37  32 SW20G35   30.11S
PINE BELT      SUNNY     64  30  27 S12G17    30.13F
$$

MSZ080>082-262100-
COASTAL MISSISSIPPI

CITY           SKY/WX    TMP DP  RH WIND       PRES   REMARKS
BAY ST LOUIS   SUNNY     63  28  27 SW8       30.19F
BILOXI         SUNNY     57  36  45 SW12      30.20F
PASCAGOULA     SUNNY     58  33  39 S9        30.19F
GULFPORT       SUNNY     57  36  45 SW9       30.19F
$$



USA.gov is the U.S. government's official web portal to all federal, state and local government web resources and services.